Location: Lone Wolf Observatory
(41.0360°N, 89.2260°W)
Time: 18:14:30
(UTC-06:00)

Amateur Radio Satellites - All Passes

Search period start: 05 February 2016 17:44
Search period end: 06 February 2016 17:44
Location: Lone Wolf Observatory, 41.0360°N, 89.2260°W

Satellite Date Start Highest point End Downlink Frequencies (MHz)
Time Altitude Azimuth
RS-15 05 Feb 17:49:18 17:58:21 24° 14° (NNE) 18:07:36 29.354- 29.394
BRITE-PL 05 Feb 17:50:15 17:55:55 78° 75° (ENE) 18:01:36 437.365/2234.400
DOVE 4 05 Feb 17:50:51 17:54:50 23° 67° (ENE) 17:58:43 437.250
LilacSat-2 05 Feb 17:51:57 17:55:41 50° 260° (W) 17:59:25 437.200
CUBESAT XI-V 05 Feb 17:53:56 17:58:40 79° 285° (WNW) 18:03:21 437.345
Cosmos 2491 05 Feb 17:55:44 18:00:40 16° 300° (WNW) 18:05:37 435.465 / 435.565
BEESAT 3 05 Feb 18:13:43 18:17:42 81° 121° (ESE) 18:21:43 437.485
STRAND 1 05 Feb 18:14:25 18:18:23 22° 94° (E) 18:22:19 437.568
BEESAT 2 05 Feb 18:29:08 18:33:09 76° 120° (ESE) 18:37:11 435.950
CANX-2 05 Feb 18:32:16 18:35:34 23° 68° (ENE) 18:38:53 2200.000
Cosmos 2504 05 Feb 18:38:14 18:43:12 17° 284° (WNW) 18:48:01 435.465 / 435.565
CUTE-I 05 Feb 18:40:37 18:44:30 20° 267° (W) 18:48:25 437.470
ISS 05 Feb 18:48:10 18:50:53 24° 337° (NNW) 18:53:37 145.825
Cubesat XI-IV 05 Feb 18:53:41 18:56:49 16° 269° (W) 18:59:59 437.490
HO-68 05 Feb 18:59:05 19:06:07 63° 69° (ENE) 19:13:13 435.675
O/OREOS (USA 219) 05 Feb 19:01:56 19:06:22 51° 253° (WSW) 19:10:49 437.305
GONETS M04 05 Feb 19:18:57 19:26:43 33° 70° (ENE) 19:34:27
CINEMA 3 05 Feb 19:20:02 19:24:42 59° 74° (ENE) 19:29:10 145.822/145.860
GOMX 1 05 Feb 19:22:22 19:27:04 29° 265° (W) 19:31:41 467.674
CUTE 1.7 + AOD 2 05 Feb 19:22:44 19:26:54 74° 77° (ENE) 19:31:08 437.475
AO-85 05 Feb 19:25:14 19:29:59 34° 47° (NE) 19:34:23 145.980
DOVE 4 05 Feb 19:27:18 19:32:16 44° 261° (W) 19:37:04 437.250
BRITE-PL 05 Feb 19:31:49 19:34:54 15° 271° (W) 19:38:01 437.365/2234.400
COMPASS 1 05 Feb 19:32:19 19:36:20 51° 73° (ENE) 19:40:23 437.405
PCSat 05 Feb 19:37:38 19:41:57 23° 47° (NE) 19:46:13 145.827
SEEDS 05 Feb 19:37:39 19:41:48 82° 78° (ENE) 19:46:01 437.485
ZACube-1 05 Feb 19:41:02 19:43:52 18° 66° (ENE) 19:46:41 437.345
AIST 2 05 Feb 19:46:48 19:50:50 51° 118° (ESE) 19:54:54 435.215
FUNcube-1 05 Feb 19:52:09 19:55:25 22° 68° (ENE) 19:58:38 145.935
STRAND 1 05 Feb 19:52:50 19:57:44 44° 290° (WNW) 20:02:37 437.568
BEESAT 3 05 Feb 19:54:10 19:56:00 13° 320° (NW) 19:57:50 437.485
CUBEBUG 2 05 Feb 19:59:40 20:03:58 56° 74° (ENE) 20:08:11 437.445
PRISM 05 Feb 20:00:40 20:04:53 87° 103° (ESE) 20:09:04 437.425
RS-15 05 Feb 20:02:58 20:14:42 51° 45° (NE) 20:26:36 29.354- 29.394
Cosmos 2499 05 Feb 20:05:22 20:12:28 28° 67° (ENE) 20:19:08 435.465 / 435.565
AAUSAT CUBESAT 2 05 Feb 20:05:33 20:09:39 79° 258° (WSW) 20:13:49 437.432
CANX-2 05 Feb 20:07:35 20:11:17 29° 264° (W) 20:15:00 2200.000
BEESAT 2 05 Feb 20:09:30 20:11:33 13° 319° (NW) 20:13:37 435.950
UWE-3 05 Feb 20:10:41 20:14:53 52° 74° (ENE) 20:19:01 435.000/436.395/437.385
DELFI C3 05 Feb 20:22:27 20:26:00 33° 71° (ENE) 20:29:36 145.870
ISS 05 Feb 20:26:38 20:28:13 13° 357° (N) 20:29:49 145.825
Oscar 11 05 Feb 20:31:11 20:35:28 82° 74° (ENE) 20:39:47 145.826/435.025
HUMSAT D 05 Feb 20:40:18 20:43:30 22° 68° (ENE) 20:46:42 437.325/437.525
HO-68 05 Feb 20:48:39 20:54:17 25° 267° (W) 20:59:57 435.675
CINEMA 3 05 Feb 20:59:46 21:02:08 14° 269° (W) 21:04:28 145.822/145.860
AO-85 05 Feb 21:05:55 21:10:28 33° 248° (WSW) 21:14:40 145.980
COMPASS 1 05 Feb 21:10:25 21:12:14 13° 270° (W) 21:14:02 437.405
VELOX 1 05 Feb 21:15:10 21:17:07 13° 62° (ENE) 21:19:04 145.980
GONETS M04 05 Feb 21:15:25 21:23:52 55° 270° (W) 21:32:21
ZACube-1 05 Feb 21:15:53 21:19:53 39° 262° (W) 21:23:51 437.345
PCSat 05 Feb 21:20:23 21:25:44 58° 246° (WSW) 21:31:01 145.827
AIST 2 05 Feb 21:26:40 21:29:38 18° 316° (NW) 21:32:35 435.215
FUNcube-1 05 Feb 21:27:44 21:31:31 31° 263° (W) 21:35:16 145.935
AISAT 05 Feb 21:29:37 21:32:44 19° 65° (ENE) 21:35:51 437.250
50 SAT 05 Feb 21:31:56 21:34:29 18° 67° (ENE) 21:37:04 437.505
ESTCUBE 1 05 Feb 21:32:23 21:35:46 21° 66° (ENE) 21:39:10 437.505/2401.250
AIST 1 05 Feb 21:38:28 21:42:32 37° 77° (ENE) 21:46:33
CUBEBUG 2 05 Feb 21:38:57 21:40:54 13° 269° (W) 21:42:50 437.445
ANTELSAT 05 Feb 21:48:17 21:52:02 28° 96° (E) 21:55:49 437.575/2403.000
UWE-3 05 Feb 21:49:37 21:51:39 13° 269° (W) 21:53:39 435.000/436.395/437.385
TIGRISAT 05 Feb 21:56:42 22:00:37 33° 97° (E) 22:04:34 435.000
Cosmos 2499 05 Feb 21:57:51 22:06:15 63° 268° (W) 22:14:01 435.465 / 435.565
DELFI C3 05 Feb 21:58:17 22:01:01 18° 267° (W) 22:03:46 145.870
CUBEBUG 1 05 Feb 22:02:06 22:06:01 31° 69° (ENE) 22:09:56 437.445
ISS 05 Feb 22:03:15 22:05:39 19° 18° (NNE) 22:08:03 145.825
UKube-1 05 Feb 22:07:25 22:11:28 40° 71° (ENE) 22:15:32 .
DX 1 05 Feb 22:10:49 22:15:05 52° 73° (ENE) 22:19:22 434.975-435.025
POLYITAN 1 05 Feb 22:13:32 22:15:22 13° 91° (E) 22:17:13 437.675
QB50P2 05 Feb 22:14:15 22:16:19 13° 91° (E) 22:18:22 145.880/145.840
HUMSAT D 05 Feb 22:15:28 22:19:01 28° 264° (W) 22:22:34 437.325/437.525
RS-15 05 Feb 22:15:43 22:27:24 56° 248° (WSW) 22:39:11 29.354- 29.394
SPROUT 05 Feb 22:25:47 22:28:55 20° 66° (ENE) 22:32:03 437.525
UNISAT 6 05 Feb 22:39:21 22:43:39 76° 285° (WNW) 22:48:01 437.425
BUGSAT 1 05 Feb 22:43:03 22:44:40 12° 91° (E) 22:46:17 437.445
POPSAT HIP 1 05 Feb 22:43:58 22:47:35 27° 96° (E) 22:51:09 437.405
VELOX 1 05 Feb 22:48:35 22:53:02 67° 258° (WSW) 22:57:30 145.980
NANOSAT C BR1 05 Feb 22:51:30 22:55:17 32° 97° (E) 22:59:03 145.865
TISAT 1 05 Feb 22:53:26 22:55:55 15° 64° (ENE) 22:58:22 437.305
DUCHIFAT 1 05 Feb 22:55:01 22:58:50 34° 97° (E) 23:02:38 145.980
QB50P1 05 Feb 22:56:49 23:00:46 38° 98° (E) 23:04:41 145.935-145.965
AISAT 05 Feb 23:04:39 23:08:54 43° 261° (W) 23:13:11 437.250
50 SAT 05 Feb 23:05:06 23:08:20 29° 263° (W) 23:11:36 437.505
ESTCUBE 1 05 Feb 23:08:08 23:12:20 38° 262° (W) 23:16:34 437.505/2401.250
AIST 1 05 Feb 23:16:55 23:19:48 18° 274° (W) 23:22:41
ANTELSAT 05 Feb 23:25:09 23:28:39 25° 292° (WNW) 23:32:12 437.575/2403.000
TIGRISAT 05 Feb 23:33:53 23:37:07 21° 293° (WNW) 23:40:24 435.000
CUBEBUG 1 05 Feb 23:38:42 23:42:18 24° 265° (W) 23:45:56 437.445
ISS 05 Feb 23:39:14 23:42:30 86° 42° (NE) 23:45:44 145.825
UKube-1 05 Feb 23:44:44 23:47:41 18° 267° (W) 23:50:39 .
POLYITAN 1 05 Feb 23:47:25 23:51:30 53° 287° (WNW) 23:55:35 437.675
QB50P2 05 Feb 23:48:20 23:52:25 50° 287° (WNW) 23:56:29 145.880/145.840
DX 1 05 Feb 23:49:15 23:51:35 14° 268° (W) 23:53:55 434.975-435.025
SWISSCUBE 05 Feb 23:54:03 23:56:54 16° 62° (ENE) 23:59:45 437.505
SPROUT 06 Feb 00:00:40 00:04:39 36° 262° (W) 00:08:39 437.525
BUGSAT 1 06 Feb 00:16:27 00:20:23 50° 287° (WNW) 00:24:17 437.445
POPSAT HIP 1 06 Feb 00:19:51 00:23:16 24° 292° (WNW) 00:26:40 437.405
ITUPSAT 1 06 Feb 00:26:56 00:31:02 29° 67° (ENE) 00:35:08 437.325
TISAT 1 06 Feb 00:27:05 00:31:11 48° 260° (W) 00:35:18 437.305
NANOSAT C BR1 06 Feb 00:27:42 00:30:51 21° 293° (WNW) 00:33:59 145.865
DUCHIFAT 1 06 Feb 00:31:16 00:34:20 20° 293° (WNW) 00:37:23 145.980
CUSAT 1 06 Feb 00:32:54 00:37:47 18° 80° (E) 00:42:49 437.405
QB50P1 06 Feb 00:33:25 00:36:16 18° 294° (WNW) 00:39:07 145.935-145.965
BEESAT 06 Feb 00:38:07 00:42:30 38° 69° (ENE) 00:46:54 436.000
JAS-2 06 Feb 00:40:56 00:44:58 19° 90° (E) 00:48:46 435.910
ISS 06 Feb 01:18:05 01:18:28 10° 231° (SW) 01:18:52 145.825
Gurwin Techsat 1B 06 Feb 01:27:01 01:31:37 29° 95° (E) 01:36:10 435.225
SWISSCUBE 06 Feb 01:29:31 01:34:13 59° 259° (W) 01:38:56 437.505
Oscar 19 06 Feb 01:32:04 01:37:15 86° 104° (ESE) 01:42:22 437.125/150
STARS 06 Feb 01:50:45 01:53:31 17° 64° (ENE) 01:56:17 437.465
KKS-1 06 Feb 01:54:21 01:58:18 32° 69° (ENE) 02:02:17 437.445
Cosmos 2491 06 Feb 02:04:05 02:12:36 53° 76° (ENE) 02:21:06 435.465 / 435.565
ITUPSAT 1 06 Feb 02:04:39 02:08:48 29° 264° (W) 02:12:59 437.325
DANDE 06 Feb 02:07:26 02:14:24 52° 91° (E) 02:22:28 436.750
CUSAT 1 06 Feb 02:11:14 02:18:55 87° 98° (E) 02:27:09 437.405
PHONESAT 2.4 06 Feb 02:14:28 02:17:04 22° 153° (SSE) 02:19:40 2401.200-2431.200
BEESAT 06 Feb 02:16:43 02:20:24 22° 266° (W) 02:24:06 436.000
JAS-2 06 Feb 02:24:51 02:30:35 53° 290° (WNW) 02:35:46 435.910
ITAMSAT 1 06 Feb 02:30:55 02:36:06 60° 101° (E) 02:41:15 435.822/435.867
BEESAT 3 06 Feb 02:31:37 02:35:25 43° 53° (NE) 02:39:12 437.485
BEESAT 2 06 Feb 02:47:45 02:51:34 42° 53° (NE) 02:55:21 435.950
MOZHAYETS 4 06 Feb 02:51:28 02:55:49 47° 72° (ENE) 03:00:13
YUBILEINY 06 Feb 02:55:21 03:03:34 47° 88° (E) 03:11:51 435.215
Gurwin Techsat 1B 06 Feb 03:06:46 03:11:35 36° 292° (WNW) 03:16:23 435.225
Oscar 19 06 Feb 03:13:41 03:15:49 13° 301° (WNW) 03:17:57 437.125/150
HORYU 2 06 Feb 03:14:08 03:15:53 12° 91° (E) 03:17:38 437.375
CUBESAT XI-V 06 Feb 03:23:21 03:24:45 11° 60° (ENE) 03:26:08 437.345
STARS 06 Feb 03:25:14 03:29:30 48° 260° (W) 03:33:47 437.465
M-CUBED/EXP-1 PRIME 06 Feb 03:27:19 03:29:41 18° 101° (E) 03:32:06 437.505
AO-7 06 Feb 03:28:32 03:36:39 52° 102° (ESE) 03:44:38 29.400- 29.500
Cosmos 2504 06 Feb 03:30:56 03:35:26 15° 75° (ENE) 03:40:00 435.465 / 435.565
KKS-1 06 Feb 03:31:18 03:34:54 24° 265° (W) 03:38:31 437.445
AUBIESAT-1 06 Feb 03:40:52 03:43:34 22° 102° (ESE) 03:46:22 437.475
PHONESAT 2.4 06 Feb 03:50:48 03:54:03 65° 169° (S) 03:57:18 2401.200-2431.200
DANDE 06 Feb 03:50:55 03:57:40 36° 292° (WNW) 04:05:18 436.750
CUSAT 1 06 Feb 03:56:23 04:02:13 22° 297° (WNW) 04:08:14 437.405
Cosmos 2491 06 Feb 04:01:32 04:09:02 34° 276° (W) 04:16:33 435.465 / 435.565
AIST 2 06 Feb 04:08:27 04:12:14 33° 50° (NE) 04:15:58 435.215
BEESAT 3 06 Feb 04:10:24 04:12:50 16° 250° (WSW) 04:15:14 437.485
ITAMSAT 1 06 Feb 04:11:35 04:15:05 18° 298° (WNW) 04:18:35 435.822/435.867
BEESAT 2 06 Feb 04:26:33 04:29:08 17° 249° (WSW) 04:31:42 435.950
MOZHAYETS 4 06 Feb 04:30:20 04:33:14 17° 268° (W) 04:36:10
SO-50 06 Feb 04:41:10 04:44:24 18° 109° (ESE) 04:47:40 436.795
HORYU 2 06 Feb 04:48:27 04:52:50 62° 287° (WNW) 04:57:13 437.375
YUBILEINY 06 Feb 04:52:28 05:00:28 38° 288° (WNW) 05:08:35 435.215
CUBESAT XI-V 06 Feb 04:56:44 05:01:25 83° 258° (WSW) 05:06:10 437.345
M-CUBED/EXP-1 PRIME 06 Feb 05:01:37 05:04:20 24° 294° (WNW) 05:07:08 437.505
AUBIESAT-1 06 Feb 05:15:31 05:18:05 20° 296° (WNW) 05:20:43 437.475
CUTE-I 06 Feb 05:17:01 05:20:55 20° 93° (E) 05:24:48 437.470
Cosmos 2504 06 Feb 05:18:49 05:27:15 80° 95° (E) 05:36:09 435.465 / 435.565
AO-7 06 Feb 05:21:43 05:29:08 38° 300° (WNW) 05:36:32 29.400- 29.500
LilacSat-2 06 Feb 05:26:31 05:28:58 16° 93° (E) 05:31:24 437.200
PHONESAT 2.4 06 Feb 05:28:01 05:31:17 79° 186° (S) 05:34:34 2401.200-2431.200
Cubesat XI-IV 06 Feb 05:28:55 05:33:23 26° 95° (E) 05:37:50 437.490
STRAND 1 06 Feb 05:30:03 05:34:31 31° 67° (ENE) 05:39:00 437.568
AIST 2 06 Feb 05:47:16 05:50:34 23° 247° (WSW) 05:53:50 435.215
BRITE-PL 06 Feb 05:56:53 06:00:48 24° 92° (E) 06:04:28 437.365/2234.400
SO-50 06 Feb 06:19:35 06:24:25 59° 306° (NW) 06:29:20 436.795
PRISM 06 Feb 06:49:50 06:53:54 60° 74° (ENE) 06:58:02 437.425
CUTE-I 06 Feb 06:56:02 07:01:14 52° 289° (WNW) 07:06:26 437.470
LilacSat-2 06 Feb 07:00:00 07:03:23 32° 288° (WNW) 07:06:45 437.200
PHONESAT 2.4 06 Feb 07:05:25 07:08:24 33° 202° (SSW) 07:11:22 2401.200-2431.200
Cubesat XI-IV 06 Feb 07:08:33 07:13:33 40° 291° (WNW) 07:18:32 437.490
STRAND 1 06 Feb 07:09:09 07:13:38 31° 264° (W) 07:18:10 437.568
CUTE 1.7 + AOD 2 06 Feb 07:09:32 07:11:33 13° 91° (E) 07:13:33 437.475
Cosmos 2504 06 Feb 07:15:14 07:21:42 23° 296° (WNW) 07:28:22 435.465 / 435.565
CINEMA 3 06 Feb 07:16:58 07:18:36 12° 91° (E) 07:20:13 145.822/145.860
SEEDS 06 Feb 07:23:15 07:25:30 14° 91° (E) 07:27:44 437.485
GOMX 1 06 Feb 07:24:12 07:28:47 84° 286° (WNW) 07:33:04 467.674
DOVE 4 06 Feb 07:26:43 07:30:57 50° 99° (E) 07:34:59 437.250
BRITE-PL 06 Feb 07:34:56 07:39:23 34° 291° (WNW) 07:43:30 437.365/2234.400
O/OREOS (USA 219) 06 Feb 07:36:17 07:39:18 18° 100° (E) 07:42:21 437.305
AAUSAT CUBESAT 2 06 Feb 07:49:11 07:51:52 16° 92° (E) 07:54:33 437.432
CANX-2 06 Feb 07:52:07 07:56:14 44° 99° (E) 08:00:21 2200.000
CUBEBUG 2 06 Feb 07:53:09 07:54:03 11° 90° (E) 07:54:57 437.445
SO-50 06 Feb 08:04:05 08:05:59 12° 326° (NNW) 08:07:52 436.795
HO-68 06 Feb 08:14:17 08:21:29 66° 103° (ESE) 08:28:37 435.675
Oscar 11 06 Feb 08:19:50 08:22:23 15° 92° (E) 08:24:55 145.826/435.025
GONETS M04 06 Feb 08:20:12 08:27:55 38° 86° (E) 08:35:39
PRISM 06 Feb 08:28:29 08:29:38 11° 270° (W) 08:30:47 437.425
Cosmos 2499 06 Feb 08:42:15 08:48:30 23° 79° (E) 08:54:52 435.465 / 435.565
CUTE 1.7 + AOD 2 06 Feb 08:43:31 08:47:42 53° 286° (WNW) 08:51:51 437.475
ANTELSAT 06 Feb 08:47:20 08:50:56 26° 68° (ENE) 08:54:28 437.575/2403.000
COMPASS 1 06 Feb 08:50:39 08:54:53 80° 284° (WNW) 08:59:06 437.405
CINEMA 3 06 Feb 08:52:03 08:56:06 52° 286° (WNW) 09:00:07 145.822/145.860
TIGRISAT 06 Feb 08:55:29 08:59:15 30° 70° (ENE) 09:02:59 435.000
SEEDS 06 Feb 08:57:22 09:01:28 49° 287° (WNW) 09:05:35 437.485
ZACube-1 06 Feb 09:04:02 09:07:54 35° 98° (E) 09:11:48 437.345
DOVE 4 06 Feb 09:05:52 09:08:11 14° 297° (WNW) 09:10:28 437.250
POLYITAN 1 06 Feb 09:07:43 09:08:33 11° 62° (ENE) 09:09:25 437.675
QB50P2 06 Feb 09:08:12 09:09:25 11° 62° (ENE) 09:10:39 145.880/145.840
O/OREOS (USA 219) 06 Feb 09:14:06 09:18:21 42° 297° (WNW) 09:22:38 437.305
FUNcube-1 06 Feb 09:15:12 09:19:13 45° 99° (E) 09:23:18 145.935
AAUSAT CUBESAT 2 06 Feb 09:23:36 09:27:33 40° 288° (WNW) 09:31:29 437.432
CUBEBUG 2 06 Feb 09:26:57 09:31:04 61° 286° (WNW) 09:35:13 437.445
CANX-2 06 Feb 09:29:02 09:31:45 17° 295° (WNW) 09:34:26 2200.000
DELFI C3 06 Feb 09:34:56 09:38:55 57° 100° (E) 09:42:54 145.870
UWE-3 06 Feb 09:36:31 09:40:40 66° 284° (WNW) 09:44:51 435.000/436.395/437.385
POPSAT HIP 1 06 Feb 09:36:47 09:40:01 21° 67° (ENE) 09:43:14 437.405
UNISAT 6 06 Feb 09:37:53 09:42:16 88° 255° (WSW) 09:46:35 437.425
AO-85 06 Feb 09:42:00 09:44:00 12° 104° (ESE) 09:46:01 145.980
NANOSAT C BR1 06 Feb 09:43:51 09:47:18 25° 68° (ENE) 09:50:45 145.865
DUCHIFAT 1 06 Feb 09:47:06 09:50:36 26° 68° (ENE) 09:54:05 145.980
QB50P1 06 Feb 09:49:18 09:52:59 29° 69° (ENE) 09:56:39 145.935-145.965
Oscar 11 06 Feb 09:54:35 09:58:45 47° 287° (WNW) 10:02:55 145.826/435.025
HUMSAT D 06 Feb 09:58:23 10:02:20 42° 99° (E) 10:06:19 437.325/437.525
HO-68 06 Feb 10:02:58 10:08:36 26° 302° (WNW) 10:14:13 435.675
AIST 1 06 Feb 10:08:06 10:11:32 23° 88° (E) 10:14:59
GONETS M04 06 Feb 10:16:14 10:24:30 47° 285° (WNW) 10:32:50
PCSat 06 Feb 10:20:29 10:24:04 18° 105° (ESE) 10:27:41 145.827
ANTELSAT 06 Feb 10:23:50 10:27:34 27° 264° (W) 10:31:16 437.575/2403.000
RS-15 06 Feb 10:29:15 10:37:47 27° 101° (ESE) 10:46:34 29.354- 29.394
Cosmos 2499 06 Feb 10:31:58 10:40:35 78° 279° (W) 10:49:33 435.465 / 435.565
TIGRISAT 06 Feb 10:32:26 10:35:57 24° 265° (W) 10:39:26 435.000
50 SAT 06 Feb 10:36:41 10:39:49 24° 96° (E) 10:42:57 437.505
POLYITAN 1 06 Feb 10:39:32 10:43:47 74° 258° (WSW) 10:48:02 437.675
VELOX 1 06 Feb 10:39:34 10:43:04 23° 95° (E) 10:46:32 145.980
QB50P2 06 Feb 10:40:25 10:44:39 70° 258° (WSW) 10:48:54 145.880/145.840
ZACube-1 06 Feb 10:40:59 10:43:58 19° 293° (WNW) 10:47:00 437.345
FUNcube-1 06 Feb 10:52:38 10:55:08 16° 295° (WNW) 10:57:40 145.935
JAS-2 06 Feb 10:54:07 10:57:37 14° 55° (NE) 11:00:59 435.910
AISAT 06 Feb 10:55:04 10:59:07 34° 97° (E) 11:03:08 437.250
ESTCUBE 1 06 Feb 11:00:27 11:04:49 44° 99° (E) 11:09:08 437.505/2401.250
BUGSAT 1 06 Feb 11:05:28 11:09:41 78° 257° (WSW) 11:13:54 437.445
DELFI C3 06 Feb 11:11:45 11:13:21 12° 296° (WNW) 11:14:57 145.870
POPSAT HIP 1 06 Feb 11:11:47 11:15:37 32° 263° (W) 11:19:27 437.405
Oscar 19 06 Feb 11:12:03 11:15:08 16° 61° (ENE) 11:18:13 437.125/150
AO-85 06 Feb 11:18:20 11:23:41 87° 121° (ESE) 11:29:14 145.980
NANOSAT C BR1 06 Feb 11:19:18 11:22:56 27° 264° (W) 11:26:36 145.865
DUCHIFAT 1 06 Feb 11:22:39 11:26:13 26° 264° (W) 11:29:49 145.980
QB50P1 06 Feb 11:25:21 11:28:45 23° 265° (W) 11:32:11 145.935-145.965
CUBEBUG 1 06 Feb 11:26:28 11:30:50 63° 101° (E) 11:35:07 437.445
UKube-1 06 Feb 11:30:19 11:34:39 76° 103° (ESE) 11:38:58 .
HUMSAT D 06 Feb 11:35:03 11:37:40 16° 294° (WNW) 11:40:17 437.325/437.525
DX 1 06 Feb 11:35:04 11:39:28 81° 282° (WNW) 11:43:47 434.975-435.025
AIST 1 06 Feb 11:45:07 11:48:58 29° 285° (WNW) 11:52:51
SPROUT 06 Feb 11:46:46 11:50:43 36° 97° (E) 11:54:38 437.525
PCSat 06 Feb 12:01:35 12:06:56 62° 302° (WNW) 12:12:20 145.827
50 SAT 06 Feb 12:10:46 12:13:46 22° 291° (WNW) 12:16:46 437.505
TISAT 1 06 Feb 12:11:37 12:15:05 24° 95° (E) 12:18:30 437.305
ITAMSAT 1 06 Feb 12:13:21 12:15:15 12° 58° (ENE) 12:17:08 435.822/435.867
VELOX 1 06 Feb 12:15:38 12:19:36 33° 290° (WNW) 12:23:31 145.980
Cosmos 2499 06 Feb 12:30:02 12:35:17 17° 300° (WNW) 12:40:39 435.465 / 435.565
AISAT 06 Feb 12:32:01 12:35:24 22° 294° (WNW) 12:38:46 437.250
JAS-2 06 Feb 12:33:48 12:41:30 68° 72° (ENE) 12:48:39 435.910
RS-15 06 Feb 12:37:35 12:48:44 82° 303° (WNW) 13:00:34 29.354- 29.394
ESTCUBE 1 06 Feb 12:38:07 12:41:17 19° 295° (WNW) 12:44:26 437.505/2401.250
AO-7 06 Feb 12:39:21 12:44:00 16° 47° (NE) 12:48:39 29.400- 29.500
Gurwin Techsat 1B 06 Feb 12:47:50 12:52:52 45° 70° (ENE) 12:57:54 435.225
Oscar 19 06 Feb 12:48:43 12:53:54 68° 258° (WSW) 12:59:04 437.125/150
DANDE 06 Feb 12:49:37 12:56:41 40° 69° (ENE) 13:02:17 436.750
CUSAT 1 06 Feb 12:50:18 12:56:44 63° 76° (ENE) 13:01:33 437.405
AO-85 06 Feb 13:01:06 13:04:58 19° 321° (NW) 13:08:52 145.980
CUBEBUG 1 06 Feb 13:04:37 13:06:35 13° 298° (WNW) 13:08:32 437.445
YUBILEINY 06 Feb 13:06:03 13:12:46 23° 65° (ENE) 13:19:25 435.215
UKube-1 06 Feb 13:09:04 13:10:05 11° 299° (WNW) 13:11:07 .
SO-50 06 Feb 13:11:43 13:15:12 19° 41° (NE) 13:18:35 436.795
SPROUT 06 Feb 13:23:22 13:26:27 20° 294° (WNW) 13:29:31 437.525
SWISSCUBE 06 Feb 13:29:56 13:34:21 35° 97° (E) 13:38:44 437.505
TISAT 1 06 Feb 13:47:11 13:50:42 27° 291° (WNW) 13:54:12 437.305
ITAMSAT 1 06 Feb 13:48:44 13:53:55 88° 76° (ENE) 13:59:09 435.822/435.867
PCSat 06 Feb 13:49:20 13:51:28 12° 323° (NW) 13:53:37 145.827
ITUPSAT 1 06 Feb 14:04:23 14:09:12 71° 103° (ESE) 14:14:00 437.325
HORYU 2 06 Feb 14:12:45 14:14:32 12° 61° (ENE) 14:16:18 437.375
M-CUBED/EXP-1 PRIME 06 Feb 14:14:15 14:17:25 26° 66° (ENE) 14:20:25 437.505
BEESAT 06 Feb 14:15:30 14:20:19 87° 291° (WNW) 14:25:07 436.000
JAS-2 06 Feb 14:20:44 14:26:51 25° 268° (W) 14:32:42 435.910
AO-7 06 Feb 14:26:59 14:35:17 69° 67° (ENE) 14:43:34 29.400- 29.500
AUBIESAT-1 06 Feb 14:27:26 14:30:44 30° 67° (ENE) 14:33:52 437.475
Gurwin Techsat 1B 06 Feb 14:28:53 14:33:00 23° 266° (W) 14:37:09 435.225
DANDE 06 Feb 14:32:55 14:39:30 35° 274° (W) 14:44:46 436.750
CUSAT 1 06 Feb 14:34:19 14:37:55 16° 281° (WNW) 14:41:02 437.405
MOZHAYETS 4 06 Feb 14:48:54 14:50:18 11° 89° (E) 14:51:43
SO-50 06 Feb 14:51:24 14:56:11 67° 240° (WSW) 15:00:48 436.795
RS-15 06 Feb 14:53:35 15:03:18 31° 332° (NNW) 15:13:29 29.354- 29.394
YUBILEINY 06 Feb 15:01:41 15:10:33 78° 266° (W) 15:19:19 435.215
Cosmos 2491 06 Feb 15:04:46 15:13:17 61° 91° (E) 15:21:47 435.465 / 435.565
SWISSCUBE 06 Feb 15:08:04 15:11:58 25° 294° (WNW) 15:15:52 437.505
Cosmos 2504 06 Feb 15:12:39 15:20:08 31° 68° (ENE) 15:27:13 435.465 / 435.565
STARS 06 Feb 15:14:59 15:18:49 29° 97° (E) 15:22:36 437.465
KKS-1 06 Feb 15:21:16 15:25:41 65° 102° (ESE) 15:30:03 437.445
ITAMSAT 1 06 Feb 15:33:16 15:34:04 10° 272° (W) 15:34:50 435.822/435.867
ITUPSAT 1 06 Feb 15:44:03 15:46:27 14° 299° (WNW) 15:48:50 437.325
HORYU 2 06 Feb 15:46:08 15:50:31 68° 258° (WSW) 15:54:56 437.375
M-CUBED/EXP-1 PRIME 06 Feb 15:49:13 15:52:03 20° 259° (WSW) 15:54:44 437.505
BEESAT 06 Feb 15:56:31 15:57:21 10° 301° (WNW) 15:58:09 436.000
AUBIESAT-1 06 Feb 16:02:54 16:05:21 17° 259° (W) 16:07:44 437.475
ISS 06 Feb 16:19:04 16:21:51 26° 135° (SE) 16:24:38 145.825
AO-7 06 Feb 16:21:55 16:28:36 26° 266° (W) 16:35:21 29.400- 29.500
MOZHAYETS 4 06 Feb 16:23:19 16:27:57 71° 284° (WNW) 16:32:34
CUTE-I 06 Feb 16:38:31 16:43:12 33° 67° (ENE) 16:47:55 437.470
Cubesat XI-IV 06 Feb 16:50:40 16:55:38 42° 69° (ENE) 17:00:39 437.490
STARS 06 Feb 16:51:29 16:55:04 25° 293° (WNW) 16:58:37 437.465
CUBESAT XI-V 06 Feb 16:54:01 16:57:55 25° 94° (E) 17:01:45 437.345
GOMX 1 06 Feb 16:56:05 16:58:46 14° 62° (ENE) 17:01:26 467.674
KKS-1 06 Feb 16:59:45 17:01:42 13° 298° (WNW) 17:03:39 437.445
YUBILEINY 06 Feb 17:01:36 17:05:45 14° 285° (WNW) 17:09:55 435.215
Cosmos 2491 06 Feb 17:03:18 17:10:38 30° 292° (WNW) 17:18:01 435.465 / 435.565
Cosmos 2504 06 Feb 17:05:33 17:14:02 59° 269° (W) 17:21:59 435.465 / 435.565
BRITE-PL 06 Feb 17:06:05 17:11:06 33° 68° (ENE) 17:16:03 437.365/2234.400
RS-15 06 Feb 17:12:29 17:21:10 22° 7° (N) 17:30:04 29.354- 29.394
